This demonstration page uses our WeatherBlox Daily Observations layout. Learn more.

41.55636, -103.73856

Hourly Observations for December 9, 2015

Temp ( °F °C ) Dew Point ( °F °C ) Humidity (%) Winds ( mph kmh ) Pressure ( in mb ) Visibility ( mi km ) Precip ( " mm )
12:53 am 00:53 Clear 50 10 31 -0.6 48 48 W 15 24 29.81 1009 10 16.0934 0 0
1:53 am 01:53 Clear 50 10 31 -0.6 48 48 WNW 17 28 29.79 1009 10 16.0934 0 0
2:53 am 02:53 Clear 51 10.6 31 -0.6 46 46 W 22 35 29.78 1008 10 16.0934 0 0
3:53 am 03:53 Clear 51 10.6 31 -0.6 46 46 W 18 30 29.78 1008 10 16.0934 0 0
4:53 am 04:53 Clear 50 10 31 -0.6 48 48 WNW 13 20 29.78 1009 10 16.0934 0 0
5:53 am 05:53 Clear 48 8.9 30 -1.1 50 50 W 10 17 29.78 1008 10 16.0934 0 0
6:53 am 06:53 Clear 44 6.7 29 -1.7 55 55 W 5 7 29.79 1009 10 16.0934 0 0
7:53 am 07:53 Sunny 47 8.3 31 -0.6 54 54 WSW 8 13 29.77 1008 10 16.0934 0 0
8:53 am 08:53 Sunny 53 11.7 32 0 45 45 NW 5 7 29.75 1008 10 16.0934 0 0
9:53 am 09:53 Sunny 62 16.7 30 -1.1 30 30 W 18 30 29.7 1006 10 16.0934 0 0
10:53 am 10:53 Sunny 64 17.8 28 -2.2 26 26 W 28 44 29.68 1005 10 16.0934 0 0
11:53 am 11:53 Sunny 66 18.9 26 -3.3 22 22 WNW 28 44 29.62 1003 10 16.0934 0 0
12:53 pm 12:53 Sunny 66 18.9 22 -5.6 19 19 WNW 24 39 29.56 1001 9 14.48406 0 0
1:53 pm 13:53 Sunny 66 18.9 20 -6.7 17 17 W 21 33 29.53 1000 10 16.0934 0 0
2:53 pm 14:53 Sunny 66 18.9 16 -8.9 14 14 W 29 46 29.51 999 10 16.0934 0 0
3:53 pm 15:53 Sunny 64 17.8 17 -8.3 16 16 W 22 35 29.52 1000 10 16.0934 0 0
4:53 pm 16:53 Clear 63 17.2 16 -8.9 16 16 WSW 16 26 29.52 1000 10 16.0934 0 0
5:53 pm 17:53 Clear 62 16.7 17 -8.3 17 17 W 18 30 29.54 1000 10 16.0934 0 0
6:53 pm 18:53 Clear 57 13.9 19 -7.2 23 23 W 9 15 29.56 1001 10 16.0934 0 0
7:53 pm 19:53 Clear 57 13.9 20 -6.7 24 24 W 12 19 29.56 1001 10 16.0934 0 0
8:53 pm 20:53 Partly Cloudy 57 13.9 21 -6.1 25 25 W 15 24 29.56 1001 10 16.0934 0 0
9:53 pm 21:53 Clear 56 13.3 23 -5 28 28 WNW 10 17 29.53 1000 10 16.0934 0 0
10:53 pm 22:53 Clear 59 15 25 -3.9 27 27 W 33 54 29.51 999 10 16.0934 0 0
11:53 pm 23:53 Clear 55 12.8 27 -2.8 34 34 W 32 52 29.56 1001 10 16.0934 0 0

Powered by AerisWeather